Weather History for Rifle, CO

Change the Weather History Date:

Sunday, June 16, 2013

  Actual Average Record
Temperature  
Mean Temperature 68 °F 66 °F  
Max Temperature 83 °F 85 °F 98 °F (2007)
Min Temperature 53 °F 48 °F 30 °F (1945)
Degree Days  
Heating Degree Days 0 2  
Month to date heating degree days 13 50  
Since 1 June heating degree days 13 50  
Since 1 July heating degree days 6694 6616  
Cooling Degree Days 3 3  
Month to date cooling degree days 55 33  
Year to date cooling degree days 62 40  
Since 1 June cooling degree days 55 33  
Growing Degree Days 18 (Base 50)    
Moisture  
Dew Point 38 °F    
Average Humidity 36    
Maximum Humidity 51    
Minimum Humidity 20    
Precipitation  
Precipitation T in 0.04 in 0.33 in (1957)
Month to date precipitation T 0.65  
Year to date precipitation 3.99 6.07  
Sea Level Pressure  
Sea Level Pressure 29.99 in    
Wind  
Wind Speed 6 mph (ENE)    
Max Wind Speed 22 mph    
Max Gust Speed 30 mph    
Visibility 10 miles    
Events Rain , Thunderstorm    
T = Trace of Precipitation, MM = Missing Value Source: NWS Daily Summary

Daily Weather History Graph

Daily Weather History Graph

Search for Another Location

Airport:

Trip Planner

Search our weather history database for the weather conditions in past years. The results will help you decide how hot, cold, wet, or windy it might be!

Date:

Astronomy

Jun. 16, 2013 Rise Set
Actual Time 5:43 AM MDT 8:40 PM MDT
Civil Twilight 5:10 AM MDT 9:12 PM MDT
Nautical Twilight 4:29 AM MDT 9:54 PM MDT
Astronomical Twilight 3:41 AM MDT 10:41 PM MDT
Moon 1:20 PM MDT (6/16) 12:48 AM MDT (6/16)
Length of Visible Light 16h 02m
Length of Day
14h 57m
Waxing Crescent, 50% of the Moon is Illuminated
Jun 16
Waxing Crescent
Jun 23
Full
Jun 29
Last Quarter
Jul 8
New
Jul 15
First Quarter

Hourly Weather History & Observations

Time (MDT) Temp. Dew Point Humidity Pressure Visibility Wind Dir Wind Speed Gust Speed Precip Events Conditions
12:53 AM 64.9 °F 34.0 °F 32% 29.91 in 10.0 mi ENE 3.5 mph - N/A   Clear
1:53 AM 60.1 °F 36.0 °F 41% 29.91 in 10.0 mi NE 4.6 mph - N/A   Clear
2:53 AM 55.9 °F 34.0 °F 44% 29.93 in 10.0 mi Calm Calm - N/A   Clear
3:53 AM 54.0 °F 33.1 °F 45% 29.94 in 10.0 mi SE 5.8 mph - N/A   Clear
4:53 AM 55.9 °F 33.1 °F 42% 29.95 in 10.0 mi Calm Calm - N/A   Clear
5:53 AM 54.0 °F 34.0 °F 47% 29.98 in 10.0 mi Calm Calm - N/A   Clear
6:53 AM 55.9 °F 37.0 °F 49% 29.99 in 10.0 mi Calm Calm - N/A   Clear
7:53 AM 62.1 °F 36.0 °F 38% 29.99 in 10.0 mi NNE 5.8 mph - N/A   Clear
8:53 AM 66.9 °F 37.0 °F 33% 30.00 in 10.0 mi SSE 3.5 mph - N/A   Clear
9:53 AM 68.0 °F 37.9 °F 33% 30.01 in 6.0 mi South 4.6 mph - 0.00 in Rain Light Rain
10:05 AM 66.2 °F 44.6 °F 46% 30.21 in 10.0 mi ENE 3.5 mph - 0.00 in Thunderstorm Overcast
10:37 AM 71.6 °F 39.2 °F 31% 30.22 in 10.0 mi NNE 6.9 mph - 0.00 in   Mostly Cloudy
10:53 AM 71.1 °F 39.0 °F 31% 30.03 in 10.0 mi North 4.6 mph - 0.00 in   Mostly Cloudy
11:53 AM 73.0 °F 41.0 °F 31% 30.03 in 10.0 mi ENE 12.7 mph - N/A   Partly Cloudy
12:53 PM 78.1 °F 39.9 °F 25% 29.98 in 10.0 mi ENE 6.9 mph 16.1 mph N/A   Clear
1:53 PM 79.0 °F 39.0 °F 24% 29.96 in 10.0 mi Variable 3.5 mph - N/A   Clear
2:48 PM 80.6 °F 37.4 °F 21% 30.13 in 10.0 mi SSE 9.2 mph - N/A Thunderstorm Clear
2:53 PM 80.1 °F 37.0 °F 21% 29.95 in 10.0 mi Variable 4.6 mph - N/A Thunderstorm Clear
3:15 PM 80.6 °F 35.6 °F 20% 30.13 in 10.0 mi NE 9.2 mph - N/A   Clear
3:53 PM 79.0 °F 42.1 °F 27% 29.95 in 10.0 mi North 13.8 mph 19.6 mph N/A   Scattered Clouds
4:53 PM 81.0 °F 37.0 °F 21% 29.91 in 10.0 mi NE 8.1 mph - N/A   Clear
5:53 PM 80.1 °F 36.0 °F 20% 29.91 in 10.0 mi Calm Calm - N/A   Clear
6:53 PM 80.1 °F 39.9 °F 24% 29.89 in 10.0 mi East 8.1 mph - N/A   Clear
7:53 PM 75.0 °F 39.9 °F 28% 29.90 in 10.0 mi ENE 13.8 mph 23.0 mph N/A Thunderstorm Thunderstorm
8:25 PM 71.6 °F 41.0 °F 33% 30.10 in 10.0 mi East 17.3 mph 20.7 mph 0.00 in   Partly Cloudy
8:53 PM 70.0 °F 42.1 °F 36% 29.91 in 10.0 mi East 16.1 mph 24.2 mph 0.00 in   Clear
9:53 PM 68.0 °F 42.1 °F 39% 29.94 in 10.0 mi ENE 12.7 mph - N/A   Clear
10:53 PM 64.0 °F 43.0 °F 46% 29.97 in 10.0 mi Variable 3.5 mph - N/A   Clear
11:53 PM 60.1 °F 42.1 °F 51% 29.96 in 10.0 mi SE 4.6 mph - N/A   Clear